Tiempo cada hora Dahod

Hoy, 30 Noviembre, Lunes

Tiempo Temperatura Precipitaciones Viento Presión Humedad
00:00 +24°C° 0 mm 2 mps 735 mmHg 53%
01:00 +24°C° 0 mm 3 mps 735 mmHg 54%
02:00 +22°C° 0 mm 3 mps 734 mmHg 55%
03:00 +22°C° 0 mm 3 mps 734 mmHg 56%
04:00 +22°C° 0 mm 3 mps 734 mmHg 56%
05:00 +21°C° 0 mm 2 mps 735 mmHg 59%
06:00 +23°C° 0 mm 2 mps 735 mmHg 56%
07:00 +24°C° 0 mm 2 mps 736 mmHg 53%
08:00 +25°C° 0 mm 3 mps 736 mmHg 50%
09:00 +27°C° 0 mm 2 mps 736 mmHg 46%
10:00 +29°C° 0 mm 2 mps 736 mmHg 42%
11:00 +31°C° 0 mm 1 mps 737 mmHg 38%
12:00 +32°C° 0 mm 1 mps 736 mmHg 36%
13:00 +34°C° 0 mm 2 mps 735 mmHg 35%
14:00 +34°C° 0 mm 2 mps 734 mmHg 33%
15:00 +32°C° 0 mm 2 mps 734 mmHg 34%
16:00 +31°C° 0 mm 2 mps 734 mmHg 35%
17:00 +30°C° 0 mm 2 mps 734 mmHg 37%
18:00 +29°C° 0 mm 2 mps 734 mmHg 37%
19:00 +27°C° 0 mm 2 mps 735 mmHg 36%
20:00 +26°C° 0 mm 3 mps 735 mmHg 35%
21:00 +25°C° 0 mm 3 mps 735 mmHg 35%
22:00 +25°C° 0 mm 3 mps 735 mmHg 34%
23:00 +24°C° 0 mm 3 mps 735 mmHg 34%

Mañana, 1 Diciembre, Martes

Tiempo Temperatura Precipitaciones Viento Presión Humedad
00:00 +24°C° 0 mm 3 mps 735 mmHg 34%
01:00 +22°C° 0 mm 3 mps 735 mmHg 34%
02:00 +22°C° 0 mm 3 mps 735 mmHg 34%
03:00 +21°C° 0 mm 3 mps 735 mmHg 35%
04:00 +21°C° 0 mm 3 mps 734 mmHg 36%
05:00 +21°C° 0 mm 3 mps 734 mmHg 37%
06:00 +22°C° 0 mm 3 mps 735 mmHg 37%
07:00 +24°C° 0 mm 3 mps 736 mmHg 38%
08:00 +25°C° 0 mm 3 mps 736 mmHg 38%
09:00 +27°C° 0 mm 3 mps 736 mmHg 35%
10:00 +29°C° 0 mm 2 mps 736 mmHg 32%
11:00 +32°C° 0 mm 2 mps 736 mmHg 29%
12:00 +34°C° 0 mm 2 mps 736 mmHg 26%
13:00 +34°C° 0 mm 2 mps 735 mmHg 22%
14:00 +35°C° 0 mm 2 mps 734 mmHg 19%
15:00 +34°C° 0 mm 2 mps 734 mmHg 20%
16:00 +31°C° 0 mm 2 mps 734 mmHg 21%
17:00 +30°C° 0 mm 2 mps 733 mmHg 22%
18:00 +28°C° 0 mm 2 mps 734 mmHg 23%
19:00 +27°C° 0 mm 2 mps 734 mmHg 24%
20:00 +25°C° 0 mm 2 mps 735 mmHg 25%
21:00 +25°C° 0 mm 3 mps 735 mmHg 26%
22:00 +24°C° 0 mm 3 mps 735 mmHg 27%
23:00 +22°C° 0 mm 3 mps 735 mmHg 28%

Pasado mañana, 2 Diciembre, Miércoles

Tiempo Temperatura Precipitaciones Viento Presión Humedad
00:00 +22°C° 0 mm 3 mps 735 mmHg 29%
01:00 +21°C° 0 mm 3 mps 735 mmHg 30%
02:00 +21°C° 0 mm 3 mps 734 mmHg 31%
03:00 +21°C° 0 mm 3 mps 734 mmHg 33%
04:00 +20°C° 0 mm 3 mps 734 mmHg 34%
05:00 +20°C° 0 mm 2 mps 734 mmHg 35%
06:00 +21°C° 0 mm 2 mps 735 mmHg 35%
07:00 +23°C° 0 mm 2 mps 735 mmHg 35%
08:00 +24°C° 0 mm 2 mps 736 mmHg 34%
09:00 +27°C° 0 mm 2 mps 736 mmHg 30%
10:00 +29°C° 0 mm 2 mps 736 mmHg 25%
11:00 +32°C° 0 mm 1 mps 736 mmHg 21%
12:00 +34°C° 0 mm 2 mps 735 mmHg 19%
13:00 +35°C° 0 mm 2 mps 734 mmHg 17%
14:00 +35°C° 0 mm 2 mps 733 mmHg 14%
15:00 +34°C° 0 mm 3 mps 733 mmHg 17%
16:00 +31°C° 0 mm 3 mps 733 mmHg 19%
17:00 +30°C° 0 mm 3 mps 732 mmHg 21%
18:00 +28°C° 0 mm 3 mps 733 mmHg 22%
19:00 +27°C° 0 mm 2 mps 733 mmHg 22%
20:00 +25°C° 0 mm 2 mps 734 mmHg 23%
21:00 +25°C° 0 mm 2 mps 733 mmHg 25%
22:00 +24°C° 0 mm 2 mps 733 mmHg 27%
23:00 +22°C° 0 mm 3 mps 733 mmHg 29%

3 Diciembre, Jueves

Tiempo Temperatura Precipitaciones Viento Presión Humedad
00:00 +23°C° 0 mm 2 mps 733 mmHg 30%
01:00 +21°C° 0 mm 2 mps 733 mmHg 31%
02:00 +21°C° 0 mm 2 mps 733 mmHg 32%
03:00 +21°C° 0 mm 2 mps 733 mmHg 34%
04:00 +20°C° 0 mm 2 mps 732 mmHg 35%
05:00 +20°C° 0 mm 2 mps 732 mmHg 37%
06:00 +21°C° 0 mm 2 mps 733 mmHg 36%
07:00 +23°C° 0 mm 2 mps 734 mmHg 36%
08:00 +24°C° 0 mm 2 mps 735 mmHg 35%
09:00 +27°C° 0 mm 2 mps 735 mmHg 31%
10:00 +29°C° 0 mm 2 mps 735 mmHg 27%
11:00 +32°C° 0 mm 2 mps 735 mmHg 22%
12:00 +34°C° 0 mm 2 mps 734 mmHg 20%
13:00 +34°C° 0 mm 1 mps 733 mmHg 18%
14:00 +34°C° 0 mm 1 mps 733 mmHg 16%
15:00 +33°C° 0 mm 1 mps 732 mmHg 18%
16:00 +31°C° 0 mm 1 mps 732 mmHg 21%
17:00 +30°C° 0 mm 2 mps 732 mmHg 23%
18:00 +28°C° 0 mm 1 mps 732 mmHg 24%
19:00 +27°C° 0 mm 1 mps 733 mmHg 25%
20:00 +25°C° 0 mm 1 mps 733 mmHg 26%
21:00 +25°C° 0 mm 1 mps 733 mmHg 27%
22:00 +24°C° 0 mm 1 mps 733 mmHg 27%
23:00 +24°C° 0 mm 1 mps 733 mmHg 28%

4 Diciembre, Viernes

Tiempo Temperatura Precipitaciones Viento Presión Humedad
00:00 +23°C° 0 mm 1 mps 732 mmHg 29%
01:00 +23°C° 0 mm 1 mps 732 mmHg 30%
02:00 +22°C° 0 mm 1 mps 732 mmHg 31%
03:00 +22°C° 0 mm 1 mps 732 mmHg 32%
04:00 +22°C° 0 mm 1 mps 732 mmHg 33%
05:00 +21°C° 0 mm 1 mps 731 mmHg 34%
06:00 +22°C° 0 mm 1 mps 732 mmHg 34%
07:00 +23°C° 0 mm 1 mps 733 mmHg 33%
08:00 +24°C° 0 mm 2 mps 733 mmHg 32%
09:00 +27°C° 0 mm 2 mps 734 mmHg 29%
10:00 +29°C° 0 mm 2 mps 734 mmHg 26%
11:00 +32°C° 0 mm 2 mps 734 mmHg 22%
12:00 +34°C° 0 mm 2 mps 733 mmHg 20%
13:00 +34°C° 0 mm 2 mps 732 mmHg 19%
14:00 +35°C° 0 mm 2 mps 732 mmHg 17%
15:00 +32°C° 0 mm 2 mps 731 mmHg 20%
16:00 +31°C° 0 mm 2 mps 731 mmHg 22%
17:00 +30°C° 0 mm 2 mps 731 mmHg 25%
18:00 +28°C° 0 mm 2 mps 732 mmHg 26%
19:00 +27°C° 0 mm 2 mps 732 mmHg 26%
20:00 +25°C° 0 mm 1 mps 732 mmHg 27%
21:00 +24°C° 0 mm 1 mps 732 mmHg 28%
22:00 +22°C° 0 mm 0 mps 732 mmHg 29%
23:00 +21°C° 0 mm 0 mps 732 mmHg 29%

5 Diciembre, Sábado

Tiempo Temperatura Precipitaciones Viento Presión Humedad
00:00 +21°C° 0 mm 0 mps 732 mmHg 30%
01:00 +20°C° 0 mm 0 mps 732 mmHg 30%
02:00 +22°C° 0 mm 1 mps 732 mmHg 31%
03:00 +22°C° 0 mm 1 mps 732 mmHg 32%
04:00 +21°C° 0 mm 1 mps 732 mmHg 32%
05:00 +21°C° 0 mm 1 mps 732 mmHg 33%
06:00 +22°C° 0 mm 1 mps 732 mmHg 32%
07:00 +24°C° 0 mm 1 mps 733 mmHg 30%
08:00 +25°C° 0 mm 1 mps 734 mmHg 29%
09:00 +27°C° 0 mm 1 mps 734 mmHg 26%
10:00 +30°C° 0 mm 1 mps 734 mmHg 22%
11:00 +32°C° 0 mm 1 mps 734 mmHg 19%
12:00 +33°C° 0 mm 1 mps 733 mmHg 19%
13:00 +34°C° 0 mm 2 mps 732 mmHg 18%
14:00 +35°C° 0 mm 2 mps 732 mmHg 18%
15:00 +32°C° 0 mm 2 mps 731 mmHg 20%
16:00 +31°C° 0 mm 2 mps 731 mmHg 23%
17:00 +30°C° 0 mm 2 mps 731 mmHg 25%
18:00 +28°C° 0 mm 2 mps 732 mmHg 26%
19:00 +27°C° 0 mm 2 mps 732 mmHg 26%
20:00 +25°C° 0 mm 2 mps 732 mmHg 27%
21:00 +24°C° 0 mm 1 mps 732 mmHg 28%
22:00 +24°C° 0 mm 1 mps 732 mmHg 29%
23:00 +23°C° 0 mm 1 mps 732 mmHg 29%
Mostrar más

Necesitamos Su Consentimiento

Meteoprog y nuestros Proveedores de Servicios pueden almacenar y acceder a sus datos personales como cookies, identificadores de dispositivo u otras tecnologías similares de su dispositivo y procesar dichos datos para personalizar contenido y anuncios, además de ofrecer funciones de redes sociales y analizar el tráfico.

  • Almacenar y/o acceder a información en su dispositivo

    Se puede almacenar o acceder a cookies, identificadores de dispositivo u otra información de su dispositivo para los fines anteriormente indicados.

  • Anuncios y contenido personalizados, medición de anuncios y contenido, percepciones del público, y desarrollo de productos

    Los anuncios y el contenido pueden personalizarse en base a su perfil. Se pueden añadir más datos para personalizar mejor los anuncios y contenidos. Se puede medir el rendimiento de los anuncios y contenidos. Se puede obtener la percepción sobre el público que ha visto los anuncios y contenidos. Dichos datos pueden usarse para desarrollar o mejorar la experiencia del usuario, sistemas y software.

Al hacer clic en ‘Estoy De Acuerdo’ usted permitirá el uso de las cookies, identificadores de dispositivo, balizas web u otras tecnologías similares indicadas. Su configuración puede cambiarse desde el navegador de su dispositivo.

Para ciertos fines, los intereses legítimos pueden ser considerados por encima del consentimiento. Puede leer más sobre ello en nuestra Política de Privacidad y Cookies.